EOK393 ROAH-RKTU

Flight info

Callsign EOK393
Flight time 1h 47m
Altitude 37000
Route CHERY DCT ONC Y579 RUGMA Y572 CJU Y722 OLMEN
Aircraft A320/M-SDE3FGHIRWY/LB1

Departure

Time 2026-05-04 14:36
Airport Naha International Airport (ROAH)

Arrival

Time 2026-05-04 16:23
Airport Cheongju International Airport/Cheongju Air Base (K-59/G-513) (RKTU)
Time Latitude Longitude Altitude Speed Heading
2026-05-04 13:54 26.21098 127.64953 22 ft 0 kts 88°
2026-05-04 14:23 26.21099 127.64905 24 ft 4 kts 116°
2026-05-04 14:23 26.21115 127.64884 22 ft 4 kts 157°
2026-05-04 14:23 26.21139 127.64878 23 ft 4 kts 177°
2026-05-04 14:24 26.21166 127.64877 23 ft 4 kts 177°
2026-05-04 14:24 26.21193 127.64876 23 ft 4 kts 177°
2026-05-04 14:24 26.21212 127.64875 23 ft 4 kts 177°
2026-05-04 14:24 26.21233 127.64874 23 ft 4 kts 176°
2026-05-04 14:25 26.21242 127.64873 23 ft 0 kts 175°
2026-05-04 14:27 26.21237 127.64874 23 ft 2 kts 175°
2026-05-04 14:27 26.21204 127.64875 23 ft 7 kts 178°
2026-05-04 14:27 26.21130 127.64878 21 ft 14 kts 179°
2026-05-04 14:27 26.21018 127.64884 20 ft 17 kts 176°
2026-05-04 14:28 26.20925 127.64858 20 ft 14 kts 234°
2026-05-04 14:28 26.20910 127.64772 20 ft 1 kts 265°
2026-05-04 14:28 26.20904 127.64754 20 ft 4 kts 233°
2026-05-04 14:28 26.20861 127.64736 17 ft 10 kts 185°
2026-05-04 14:29 26.20700 127.64741 17 ft 13 kts 177°
2026-05-04 14:29 26.20491 127.64751 18 ft 18 kts 177°
2026-05-04 14:30 26.20363 127.64756 20 ft 19 kts 178°
2026-05-04 14:30 26.20228 127.64763 17 ft 20 kts 177°
2026-05-04 14:30 26.19989 127.64774 18 ft 16 kts 176°
2026-05-04 14:31 26.19866 127.64780 17 ft 19 kts 178°
2026-05-04 14:31 26.19610 127.64792 17 ft 16 kts 178°
2026-05-04 14:32 26.19401 127.64803 17 ft 14 kts 177°
2026-05-04 14:32 26.19307 127.64807 17 ft 13 kts 178°
2026-05-04 14:32 26.19218 127.64811 17 ft 12 kts 178°
2026-05-04 14:32 26.19138 127.64815 17 ft 11 kts 178°
2026-05-04 14:33 26.19064 127.64819 17 ft 10 kts 177°
2026-05-04 14:33 26.19001 127.64822 17 ft 9 kts 177°
2026-05-04 14:33 26.18922 127.64825 19 ft 14 kts 178°
2026-05-04 14:33 26.18814 127.64830 18 ft 15 kts 178°
2026-05-04 14:34 26.18714 127.64834 17 ft 14 kts 178°
2026-05-04 14:34 26.18622 127.64840 18 ft 12 kts 178°
2026-05-04 14:34 26.18541 127.64834 16 ft 12 kts 205°
2026-05-04 14:34 26.18514 127.64761 16 ft 10 kts 266°
2026-05-04 14:35 26.18509 127.64683 16 ft 9 kts 266°
2026-05-04 14:35 26.18538 127.64638 16 ft 9 kts 352°
2026-05-04 14:35 26.18578 127.64636 17 ft 12 kts 358°
2026-05-04 14:35 26.18906 127.64619 19 ft 82 kts 358°
2026-05-04 14:36 26.19680 127.64585 17 ft 138 kts 359°
2026-05-04 14:36 26.20700 127.64536 495 ft 146 kts
2026-05-04 14:36 26.21739 127.64470 1134 ft 153 kts
2026-05-04 14:36 26.22836 127.64390 1706 ft 164 kts
2026-05-04 14:37 26.24045 127.64309 2092 ft 186 kts 360°
2026-05-04 14:37 26.25455 127.64247 2276 ft 220 kts
2026-05-04 14:37 26.27071 127.64215 2772 ft 242 kts
2026-05-04 14:37 26.28775 127.64316 3610 ft 249 kts
2026-05-04 14:38 26.30521 127.64607 4439 ft 259 kts 11°
2026-05-04 14:38 26.32335 127.64941 5187 ft 270 kts 11°
2026-05-04 14:38 26.34237 127.65279 5836 ft 284 kts
2026-05-04 14:38 26.36244 127.65383 6564 ft 293 kts 359°
2026-05-04 14:39 26.38314 127.65421 7267 ft 301 kts 356°
2026-05-04 14:39 26.40418 127.65435 8092 ft 304 kts 356°
2026-05-04 14:39 26.42538 127.65446 8951 ft 306 kts 355°
2026-05-04 14:40 26.46850 127.65486 10357 ft 322 kts 354°
2026-05-04 14:40 26.49178 127.65500 10587 ft 346 kts 354°
2026-05-04 14:40 26.51632 127.65520 11057 ft 358 kts 355°
2026-05-04 14:40 26.54145 127.65553 11725 ft 363 kts 355°
2026-05-04 14:41 26.56682 127.65591 12441 ft 367 kts 355°
2026-05-04 14:41 26.59247 127.65632 13160 ft 371 kts 355°
2026-05-04 14:41 26.64455 127.65711 14501 ft 378 kts 354°
2026-05-04 14:42 26.69763 127.65782 15716 ft 385 kts 354°
2026-05-04 14:42 26.72453 127.65819 16340 ft 388 kts 354°
2026-05-04 14:42 26.75128 127.65854 16925 ft 391 kts 354°
2026-05-04 14:43 26.77860 127.65890 17521 ft 394 kts 354°
2026-05-04 14:43 26.80617 127.65927 18111 ft 398 kts 354°
2026-05-04 14:43 26.83398 127.65965 18669 ft 401 kts 354°
2026-05-04 14:43 26.86196 127.66001 19160 ft 404 kts 354°
2026-05-04 14:44 26.89024 127.66039 19657 ft 408 kts 354°
2026-05-04 14:44 26.91874 127.66076 20140 ft 412 kts 354°
2026-05-04 14:44 26.94752 127.66114 20626 ft 416 kts 354°
2026-05-04 14:44 26.97659 127.66153 21129 ft 419 kts 353°
2026-05-04 14:45 27.00586 127.66192 21611 ft 422 kts 353°
2026-05-04 14:45 27.03537 127.66233 22095 ft 426 kts 353°
2026-05-04 14:45 27.06511 127.66273 22569 ft 429 kts 353°
2026-05-04 14:45 27.09509 127.66314 23026 ft 433 kts 353°
2026-05-04 14:46 27.12528 127.66355 23520 ft 436 kts 352°
2026-05-04 14:46 27.15568 127.66396 23953 ft 438 kts 352°
2026-05-04 14:46 27.18623 127.66436 24334 ft 440 kts 352°
2026-05-04 14:46 27.21697 127.66477 24698 ft 443 kts 352°
2026-05-04 14:47 27.24788 127.66519 25057 ft 446 kts 352°
2026-05-04 14:47 27.27897 127.66560 25402 ft 448 kts 352°
2026-05-04 14:47 27.31022 127.66601 25750 ft 450 kts 352°
2026-05-04 14:47 27.34166 127.66642 26086 ft 453 kts 352°
2026-05-04 14:48 27.37327 127.66686 26440 ft 456 kts 352°
2026-05-04 14:48 27.40503 127.66729 26774 ft 458 kts 352°
2026-05-04 14:48 27.43702 127.66770 27102 ft 461 kts 352°
2026-05-04 14:48 27.46914 127.66811 27424 ft 463 kts 352°
2026-05-04 14:49 27.50145 127.66854 27737 ft 466 kts 352°
2026-05-04 14:49 27.53394 127.66900 28065 ft 468 kts 352°
2026-05-04 14:49 27.56663 127.66947 28376 ft 470 kts 352°
2026-05-04 14:49 27.59944 127.66996 28710 ft 473 kts 352°
2026-05-04 14:50 27.63251 127.67043 28952 ft 477 kts 352°
2026-05-04 14:50 27.66579 127.67089 29224 ft 480 kts 352°
2026-05-04 14:50 27.69926 127.67134 29499 ft 482 kts 352°
2026-05-04 14:50 27.73297 127.67179 29771 ft 485 kts 352°
2026-05-04 14:51 27.76678 127.67223 30035 ft 487 kts 352°
2026-05-04 14:51 27.80078 127.67267 30279 ft 490 kts 352°
2026-05-04 14:51 27.83491 127.67313 30520 ft 492 kts 351°
2026-05-04 14:51 27.86920 127.67359 30721 ft 494 kts 351°
2026-05-04 14:52 27.90361 127.67405 30939 ft 495 kts 351°
2026-05-04 14:52 27.93807 127.67452 31202 ft 495 kts 351°
2026-05-04 14:52 27.97242 127.67501 31538 ft 493 kts 351°
2026-05-04 14:52 28.00660 127.67549 31880 ft 490 kts 350°
2026-05-04 14:53 28.04067 127.67595 32229 ft 488 kts 350°
2026-05-04 14:53 28.07453 127.67639 32575 ft 486 kts 350°
2026-05-04 14:53 28.10829 127.67687 32921 ft 484 kts 349°
2026-05-04 14:53 28.14184 127.67736 33270 ft 482 kts 349°
2026-05-04 14:54 28.17529 127.67786 33613 ft 479 kts 349°
2026-05-04 14:54 28.20855 127.67834 33965 ft 477 kts 348°
2026-05-04 14:54 28.24168 127.67878 34293 ft 475 kts 348°
2026-05-04 14:54 28.27467 127.67921 34571 ft 474 kts 348°
2026-05-04 14:55 28.30758 127.67963 34860 ft 473 kts 348°
2026-05-04 14:55 28.34052 127.68005 35084 ft 473 kts 348°
2026-05-04 14:55 28.37303 127.68047 35303 ft 474 kts 348°
2026-05-04 14:55 28.40601 127.68092 35520 ft 474 kts 348°
2026-05-04 14:56 28.43894 127.68135 35733 ft 473 kts 348°
2026-05-04 14:56 28.47189 127.68180 35943 ft 474 kts 348°
2026-05-04 14:56 28.50485 127.68230 36147 ft 474 kts 349°
2026-05-04 14:56 28.53778 127.68282 36384 ft 473 kts 348°
2026-05-04 14:57 28.57070 127.68332 36587 ft 473 kts 348°
2026-05-04 14:57 28.60361 127.68378 36791 ft 472 kts 348°
2026-05-04 14:57 28.63642 127.68421 36990 ft 472 kts 348°
2026-05-04 14:57 28.66927 127.68464 37139 ft 472 kts 348°
2026-05-04 14:58 28.73485 127.68551 37173 ft 471 kts 348°
2026-05-04 14:58 28.80041 127.68642 37171 ft 471 kts 348°
2026-05-04 14:59 28.86598 127.68732 37177 ft 471 kts 348°
2026-05-04 15:00 28.96436 127.68877 37176 ft 471 kts 348°
2026-05-04 15:00 29.02996 127.68965 37198 ft 472 kts 347°
2026-05-04 15:01 29.12852 127.69092 37187 ft 473 kts 347°
2026-05-04 15:01 29.19433 127.69181 37184 ft 473 kts 347°
2026-05-04 15:02 29.26023 127.69280 37207 ft 474 kts 347°
2026-05-04 15:02 29.32623 127.69374 37192 ft 475 kts 347°
2026-05-04 15:03 29.39233 127.69462 37186 ft 475 kts 347°
2026-05-04 15:03 29.45849 127.69554 37221 ft 476 kts 347°
2026-05-04 15:04 29.52471 127.69654 37207 ft 476 kts 347°
2026-05-04 15:04 29.59098 127.69741 37199 ft 476 kts 347°
2026-05-04 15:05 29.65685 127.69835 37199 ft 476 kts 347°
2026-05-04 15:05 29.72311 127.69934 37183 ft 475 kts 347°
2026-05-04 15:06 29.78916 127.70023 37184 ft 475 kts 347°
2026-05-04 15:07 29.88833 127.70162 37189 ft 475 kts 347°
2026-05-04 15:07 29.95457 127.70259 37214 ft 475 kts 347°
2026-05-04 15:08 30.02072 127.70350 37203 ft 475 kts 347°
2026-05-04 15:08 30.08682 127.70440 37199 ft 475 kts 347°
2026-05-04 15:09 30.15297 127.70532 37185 ft 475 kts 347°
2026-05-04 15:09 30.20777 127.70611 37173 ft 473 kts 347°
2026-05-04 15:10 30.27273 127.70333 37180 ft 454 kts 336°
2026-05-04 15:10 30.30284 127.69504 37179 ft 440 kts 330°
2026-05-04 15:11 30.39137 127.66590 37174 ft 441 kts 330°
2026-05-04 15:11 30.45050 127.64657 37182 ft 442 kts 330°
2026-05-04 15:12 30.50964 127.62722 37183 ft 442 kts 330°
2026-05-04 15:12 30.56887 127.60783 37189 ft 442 kts 330°
2026-05-04 15:13 30.62804 127.58843 37222 ft 442 kts 330°
2026-05-04 15:13 30.68724 127.56895 37206 ft 442 kts 330°
2026-05-04 15:14 30.74634 127.54949 37198 ft 441 kts 330°
2026-05-04 15:14 30.80544 127.53002 37197 ft 441 kts 330°
2026-05-04 15:15 30.86454 127.51048 37250 ft 441 kts 330°
2026-05-04 15:15 30.92356 127.49099 37182 ft 440 kts 330°
2026-05-04 15:16 31.01208 127.46170 37200 ft 441 kts 330°
2026-05-04 15:17 31.10080 127.43226 37194 ft 442 kts 330°
2026-05-04 15:17 31.18963 127.40261 37210 ft 443 kts 330°
2026-05-04 15:18 31.24849 127.38294 37207 ft 443 kts 330°
2026-05-04 15:19 31.33763 127.35352 37201 ft 444 kts 330°
2026-05-04 15:19 31.42681 127.32426 37180 ft 443 kts 331°
2026-05-04 15:20 31.48610 127.30475 37179 ft 443 kts 330°
2026-05-04 15:20 31.53542 127.28841 37183 ft 443 kts 330°
2026-05-04 15:21 31.60484 127.26536 37186 ft 444 kts 330°
2026-05-04 15:22 31.69401 127.23573 37204 ft 444 kts 331°
2026-05-04 15:22 31.78332 127.20603 37208 ft 445 kts 331°
2026-05-04 15:23 31.84287 127.18618 37202 ft 445 kts 331°
2026-05-04 15:23 31.90245 127.16632 37177 ft 444 kts 331°
2026-05-04 15:24 32.02123 127.12669 37175 ft 446 kts 331°
2026-05-04 15:25 32.08093 127.10677 37176 ft 446 kts 331°
2026-05-04 15:26 32.17040 127.07661 37196 ft 446 kts 331°
2026-05-04 15:26 32.26000 127.04646 37188 ft 446 kts 331°
2026-05-04 15:27 32.34959 127.01640 37184 ft 446 kts 331°
2026-05-04 15:28 32.43911 126.98627 37189 ft 445 kts 332°
2026-05-04 15:29 32.52852 126.95581 37175 ft 445 kts 331°
2026-05-04 15:30 32.73363 126.87596 37193 ft 444 kts 330°
2026-05-04 15:31 32.82190 126.84220 37186 ft 444 kts 330°
2026-05-04 15:32 32.96848 126.78535 37185 ft 444 kts 330°
2026-05-04 15:34 33.11556 126.72845 37210 ft 444 kts 331°
2026-05-04 15:34 33.20330 126.69452 37171 ft 441 kts 331°
2026-05-04 15:35 33.29103 126.66043 37175 ft 442 kts 331°
2026-05-04 15:36 33.38204 126.63535 37207 ft 469 kts 351°
2026-05-04 15:36 33.41454 126.63931 37202 ft 484 kts
2026-05-04 15:36 33.44726 126.65117 37194 ft 496 kts 12°
2026-05-04 15:37 33.51210 126.67971 37187 ft 497 kts 12°
2026-05-04 15:37 33.57775 126.70059 37212 ft 478 kts 356°
2026-05-04 15:38 33.64371 126.70735 37202 ft 476 kts 355°
2026-05-04 15:38 33.70966 126.71420 37199 ft 476 kts 355°
2026-05-04 15:39 33.77563 126.72128 37224 ft 476 kts 356°
2026-05-04 15:40 33.87448 126.73189 37199 ft 475 kts 356°
2026-05-04 15:40 33.94030 126.73882 37194 ft 475 kts 356°
2026-05-04 15:41 34.00606 126.74556 37207 ft 474 kts 356°
2026-05-04 15:41 34.07180 126.75241 37187 ft 474 kts 356°
2026-05-04 15:42 34.13751 126.75932 37184 ft 474 kts 356°
2026-05-04 15:42 34.20324 126.76621 37207 ft 474 kts 356°
2026-05-04 15:43 34.26851 126.77309 37197 ft 473 kts 356°
2026-05-04 15:43 34.33415 126.78013 37191 ft 473 kts 356°
2026-05-04 15:44 34.39976 126.78719 37203 ft 473 kts 357°
2026-05-04 15:44 34.46527 126.79419 37195 ft 472 kts 357°
2026-05-04 15:45 34.53068 126.80107 37194 ft 472 kts 357°
2026-05-04 15:45 34.59608 126.80798 37206 ft 471 kts 357°
2026-05-04 15:46 34.66129 126.81504 37193 ft 470 kts 357°
2026-05-04 15:46 34.72641 126.82196 37196 ft 470 kts 357°
2026-05-04 15:47 34.79150 126.82890 37211 ft 469 kts 358°
2026-05-04 15:47 34.85650 126.83593 37202 ft 469 kts 358°
2026-05-04 15:48 34.92141 126.84292 37199 ft 468 kts 358°
2026-05-04 15:48 35.01868 126.85338 37191 ft 468 kts 357°
2026-05-04 15:49 35.08350 126.86035 37191 ft 468 kts 358°
2026-05-04 15:49 35.14792 126.86737 37221 ft 468 kts 358°
2026-05-04 15:50 35.21270 126.87445 37210 ft 467 kts 358°
2026-05-04 15:50 35.27738 126.88150 37202 ft 466 kts 358°
2026-05-04 15:51 35.34194 126.88851 37199 ft 465 kts 358°
2026-05-04 15:51 35.40641 126.89554 37202 ft 465 kts 358°
2026-05-04 15:52 35.47086 126.90252 37198 ft 464 kts 358°
2026-05-04 15:52 35.53522 126.90952 37195 ft 464 kts 358°
2026-05-04 15:53 35.59945 126.91657 37192 ft 463 kts 358°
2026-05-04 15:53 35.66357 126.92354 37185 ft 462 kts 358°
2026-05-04 15:54 35.72767 126.93063 37181 ft 463 kts 358°
2026-05-04 15:54 35.79165 126.93775 36675 ft 459 kts 358°
2026-05-04 15:55 35.82348 126.94127 35972 ft 459 kts 358°
2026-05-04 15:55 35.85522 126.94477 35268 ft 458 kts 359°
2026-05-04 15:55 35.88700 126.94824 34576 ft 458 kts 359°
2026-05-04 15:55 35.91868 126.95169 33841 ft 457 kts 359°
2026-05-04 15:56 35.95042 126.95515 33044 ft 457 kts 360°
2026-05-04 15:56 35.97131 126.95743 32532 ft 456 kts
2026-05-04 15:56 36.01326 126.96206 31742 ft 448 kts
2026-05-04 15:56 36.04415 126.96554 31164 ft 443 kts
2026-05-04 15:57 36.06442 126.96783 30788 ft 440 kts
2026-05-04 15:57 36.09475 126.97124 30232 ft 436 kts
2026-05-04 15:57 36.13452 126.97568 29414 ft 430 kts
2026-05-04 15:57 36.16416 126.97899 28807 ft 425 kts
2026-05-04 15:58 36.18398 126.98119 28404 ft 422 kts
2026-05-04 15:58 36.22252 126.98543 27625 ft 417 kts
2026-05-04 15:58 36.25130 126.98858 27050 ft 413 kts
2026-05-04 15:58 36.27059 126.99071 26670 ft 411 kts
2026-05-04 15:59 36.29895 126.99386 26112 ft 407 kts
2026-05-04 15:59 36.32709 126.99700 25585 ft 404 kts
2026-05-04 15:59 36.35494 127.00010 25080 ft 400 kts
2026-05-04 15:59 36.38257 127.00309 24577 ft 397 kts
2026-05-04 16:00 36.41002 127.00286 24076 ft 393 kts 358°
2026-05-04 16:00 36.43727 127.00190 23572 ft 390 kts 358°
2026-05-04 16:00 36.46431 127.00090 23012 ft 387 kts 358°
2026-05-04 16:00 36.49116 126.99988 22477 ft 385 kts 358°
2026-05-04 16:01 36.51781 126.99888 21968 ft 382 kts 358°
2026-05-04 16:01 36.54425 126.99792 21472 ft 379 kts 358°
2026-05-04 16:01 36.57052 126.99700 20979 ft 376 kts 358°
2026-05-04 16:01 36.59659 126.99610 20492 ft 373 kts 359°
2026-05-04 16:02 36.62208 127.00052 20155 ft 371 kts 19°
2026-05-04 16:02 36.64458 127.01602 20078 ft 372 kts 39°
2026-05-04 16:02 36.67807 127.06442 19144 ft 368 kts 52°
2026-05-04 16:03 36.69365 127.08966 18671 ft 366 kts 52°
2026-05-04 16:03 36.70906 127.11483 18191 ft 364 kts 52°
2026-05-04 16:03 36.72439 127.13987 17689 ft 362 kts 52°
2026-05-04 16:03 36.73965 127.16476 17197 ft 360 kts 52°
2026-05-04 16:04 36.75483 127.18948 16717 ft 358 kts 52°
2026-05-04 16:04 36.78498 127.23845 15804 ft 354 kts 52°
2026-05-04 16:04 36.79994 127.26273 15368 ft 352 kts 52°
2026-05-04 16:05 36.81482 127.28687 14928 ft 350 kts 52°
2026-05-04 16:05 36.82964 127.31086 14501 ft 348 kts 52°
2026-05-04 16:05 36.85917 127.35843 13616 ft 345 kts 52°
2026-05-04 16:06 36.87382 127.38198 13139 ft 343 kts 52°
2026-05-04 16:06 36.91232 127.44418 11898 ft 337 kts 52°
2026-05-04 16:07 36.93116 127.47481 11286 ft 335 kts 52°
2026-05-04 16:07 36.97273 127.54358 10240 ft 319 kts 52°
2026-05-04 16:08 36.98477 127.56620 10111 ft 308 kts 65°
2026-05-04 16:08 36.98252 127.64283 9126 ft 296 kts 102°
2026-05-04 16:09 36.97407 127.69296 8348 ft 293 kts 102°
2026-05-04 16:09 36.96932 127.72048 7916 ft 291 kts 102°
2026-05-04 16:15 36.96566 127.73895 7569 ft 291 kts 106°
2026-05-04 16:16 36.95017 127.78493 6312 ft 285 kts 124°
2026-05-04 16:16 36.90309 127.79220 5774 ft 231 kts 214°
2026-05-04 16:17 36.88139 127.76492 5230 ft 218 kts 236°
2026-05-04 16:18 36.85417 127.72044 4366 ft 213 kts 235°
2026-05-04 16:18 36.84518 127.70581 4065 ft 212 kts 235°
2026-05-04 16:19 36.81914 127.66354 3254 ft 189 kts 236°
2026-05-04 16:19 36.80410 127.63913 2756 ft 167 kts 235°
2026-05-04 16:20 36.78442 127.60720 2133 ft 139 kts 234°
2026-05-04 16:20 36.77315 127.58843 1765 ft 133 kts 234°
2026-05-04 16:21 36.75608 127.56099 1212 ft 134 kts 232°
2026-05-04 16:22 36.74468 127.54260 853 ft 133 kts 232°
2026-05-04 16:22 36.72761 127.51517 331 ft 133 kts 232°
2026-05-04 16:23 36.71498 127.49514 180 ft 36 kts 231°
2026-05-04 16:24 36.71574 127.49335 187 ft 5 kts 52°
2026-05-04 16:25 36.71598 127.49373 185 ft 9 kts 50°
2026-05-04 16:26 36.71928 127.49767 197 ft 17 kts 324°
2026-05-04 16:26 36.72076 127.49781 198 ft 7 kts 52°
2026-05-04 16:27 36.72132 127.49779 204 ft 4 kts 323°
2026-05-04 16:28 36.72149 127.49763 191 ft 0 kts 322°